This is the latest recevied weather packets stored in our database for station/object YO6LRV-3. If no packets are shown the sender has not sent any weather packets the latest 10 day(s).
| Time | Temp. | Humidity | Pressure | Rain* | Wind** | Luminosity | Snow |
|---|---|---|---|---|---|---|---|
| 1778034972 | 15° C | 40% | 1012.6 hPa | - | - | - | - |
| 1778034072 | 15° C | 40% | 1012.5 hPa | - | - | - | - |
| 1778033172 | 15° C | 40% | 1012.4 hPa | - | - | - | - |
| 1778032272 | 15° C | 39% | 1012.4 hPa | - | - | - | - |
| 1778031371 | 15.56° C | 39% | 1012.5 hPa | - | - | - | - |
| 1778030471 | 15.56° C | 38% | 1012.3 hPa | - | - | - | - |
| 1778029574 | 16.11° C | 38% | 1012.4 hPa | - | - | - | - |
| 1778027773 | 16.67° C | 34% | 1012.3 hPa | - | - | - | - |
| 1778025073 | 17.22° C | 34% | 1012.3 hPa | - | - | - | - |
| 1778023273 | 17.22° C | 34% | 1012.4 hPa | - | - | - | - |
| 1778022372 | 17.78° C | 34% | 1012.5 hPa | - | - | - | - |
| 1778021473 | 17.78° C | 33% | 1012.5 hPa | - | - | - | - |
| 1778019672 | 17.78° C | 33% | 1012.5 hPa | - | - | - | - |
| 1778018772 | 17.78° C | 33% | 1012.6 hPa | - | - | - | - |
| 1778017872 | 17.78° C | 32% | 1012.6 hPa | - | - | - | - |
| 1778016972 | 18.33° C | 31% | 1012.5 hPa | - | - | - | - |
| 1778016072 | 18.33° C | 31% | 1012.6 hPa | - | - | - | - |
| 1778015171 | 18.89° C | 30% | 1012.7 hPa | - | - | - | - |
| 1778014271 | 19.44° C | 29% | 1012.5 hPa | - | - | - | - |
| 1778013371 | 19.44° C | 28% | 1011.7 hPa | - | - | - | - |
| 1778012471 | 20° C | 27% | 1012.3 hPa | - | - | - | - |
| 1778011571 | 20° C | 27% | 1012.3 hPa | - | - | - | - |
| 1778010671 | 20.56° C | 27% | 1012.3 hPa | - | - | - | - |
| 1778009771 | 20.56° C | 28% | 1012.3 hPa | - | - | - | - |
| 1778008871 | 21.11° C | 29% | 1012.2 hPa | - | - | - | - |
* Rain since midnight (hover to see other rain measurements)
** Current wind speed in m/s (hover to see current wind gust speed)